Home > Weather > Osorno > Past weeks

Flag for Chile Past Weather in Osorno, Chile — Yesterday and Last 2 Weeks

Now
39 °F

Clear.


Feels Like: 39 °F
Forecast: 36 / 56 °F
Wind: 2 mph from North

Location: Puerto Montt Airport

Current Time: May 27, 2016 at 10:09:34 PM

Latest Report: May 27, 2016 at 9:00 PM


Visibility: 10 mi

Pressure: 30.09 "Hg

Humidity: 93%

Dew Point: 37 °F

Location of OsornoLocation

Past Weather in Osorno — Graph

°F

Osorno Temperature Yesterday

Maximum temperature yesterday: 66 °F (at 2:00 PM)
Minimum temperature yesterday: 41 °F (at 11:00 PM)
Average temperature yesterday: 54 °F

High & Low Weather Summary for the Past Weeks

 TemperatureHumidityPressure
High66 °F (May 13, 2:00 PM)100% (May 13, 4:00 AM)30.24 "Hg (May 13, 4:00 AM)
Low30 °F (May 21, 4:00 AM)39% (May 21, 3:00 PM)29.89 "Hg (May 13, 6:00 PM)
Average48 °F86%30.07 "Hg
* Reported May 12 10:00 PM — May 27 9:00 PM, Osorno, Weather by CustomWeather, © 2016

Note: Actual official high and low records may vary slightly from our data, if they occured in-between our weather recording intervals... More about our weather records

Advertising

Osorno Weather History for the Previous 24 Hours

Scroll right to see more
 ConditionsComfort  
Time TempWeatherWind HumidityBarometerVisibility
9:00 PM
Fri, May 27
39 °FClear.2 mph93%30.09 "Hg10 mi
8:00 PM43 °FClear.No wind87%30.09 "Hg4 mi
7:00 PM46 °FClear.No wind82%30.09 "Hg5 mi
6:00 PM52 °FClear.2 mph72%30.09 "Hg10 mi
5:00 PM59 °FClear.3 mph48%30.09 "Hg10 mi
4:00 PM61 °FSunny.6 mph48%30.07 "Hg10 mi
3:00 PM61 °FSunny.6 mph48%30.07 "Hg10 mi
2:00 PM61 °FSunny.1 mph45%30.07 "Hg10 mi
1:00 PM59 °FSunny.2 mph42%30.09 "Hg10 mi
12:00 PM57 °FSunny.2 mph55%30.12 "Hg10 mi
11:00 AM52 °FSunny.1 mph72%30.12 "Hg10 mi
10:00 AM46 °FSunny.No wind87%30.12 "Hg10 mi
9:00 AM36 °FSunny.No wind100%30.12 "Hg10 mi
6:00 AM36 °FClear.1 mph93%30.12 "Hg10 mi
5:00 AM37 °FClear.No wind93%30.12 "Hg10 mi
4:00 AM37 °FClear.1 mph93%30.12 "Hg10 mi
3:00 AM37 °FClear.1 mph93%30.15 "Hg10 mi
2:00 AM37 °FClear.1 mph93%30.15 "Hg10 mi
1:00 AM39 °FClear.2 mph93%30.15 "Hg10 mi
11:00 PM
Thu, May 26
41 °FClear.1 mph87%30.15 "Hg10 mi
10:00 PM43 °FClear.1 mph87%30.15 "Hg10 mi
Weather by CustomWeather, © 2016

See weather overviewHow to use our weather pages